Home   Weather   Chico   Past weeks

Flag for USA Past Weather in Chico, California, USA — Yesterday and Last 2 Weeks

Now
86 °F

Clear.


Feels Like: 87 °F
Forecast: 68 / 98 °F
Wind: 7 mph from Southeast

Location: Chico Municipal

Current Time: Aug 17, 2017 at 10:10:46 pm

Latest Report: Aug 17, 2017 at 9:35 pm


Visibility: 10 mi

Pressure: 29.89 "Hg

Humidity: 46%

Dew Point: 63 °F

Location of ChicoLocation

Past Weather in Chico — Graph

°F

Chico Temperature Yesterday

Maximum temperature yesterday: 86 °F (at 4:55 pm)
Minimum temperature yesterday: 64 °F (at 5:35 am)
Average temperature yesterday: 76 °F

High & Low Weather Summary for the Past Weeks

 TemperatureHumidityPressure
High100 °F (Aug 3, 3:53 pm)83% (Aug 15, 4:55 am)29.99 "Hg (Aug 15, 4:55 am)
Low61 °F (Aug 15, 6:55 am)16% (Aug 4, 5:15 pm)29.74 "Hg (Aug 14, 6:35 pm)
Average81 °F45%29.86 "Hg
* Reported Aug 2 8:15 pm — Aug 17 8:55 pm, Chico. Weather by CustomWeather, © 2017

Note: Actual official high and low records may vary slightly from our data, if they occured in-between our weather recording intervals... More about our weather records

Advertising

Chico Weather History for the Previous 24 Hours

Scroll right to see more
 ConditionsComfort  
Time TempWeatherWind HumidityBarometerVisibility
8:55 pm
Thu, Aug 17
86 °FClear.6 mph46%29.88 "Hg10 mi
8:35 pm86 °FClear.7 mph46%29.87 "Hg10 mi
8:15 pm86 °FClear.7 mph49%29.87 "Hg10 mi
7:55 pm88 °FSunny.9 mph46%29.87 "Hg10 mi
7:35 pm90 °FSunny.8 mph41%29.86 "Hg10 mi
7:15 pm90 °FSunny.8 mph41%29.86 "Hg10 mi
6:58 pm91 °FPassing clouds.8 mph34%29.86 "Hg10 mi
6:35 pm91 °FSunny.9 mph36%29.86 "Hg10 mi
5:55 pm91 °FSunny.7 mph36%29.86 "Hg10 mi
5:35 pm91 °FSunny.8 mph36%29.86 "Hg10 mi
4:55 pm93 °FSunny.8 mph36%29.87 "Hg10 mi
3:50 pm91 °FPassing clouds.7 mph38%29.89 "Hg10 mi
2:51 pm91 °FSunny.9 mph36%29.90 "Hg10 mi
1:50 pm88 °FSunny.8 mph40%29.93 "Hg10 mi
12:50 pm86 °FSunny.6 mph43%29.95 "Hg10 mi
11:48 am82 °FSunny.6 mph45%29.97 "Hg10 mi
10:50 am81 °FSunny.6 mph45%29.99 "Hg10 mi
9:48 am75 °FSunny.6 mph57%29.99 "Hg10 mi
8:50 am73 °FSunny.No wind57%29.99 "Hg10 mi
7:47 am70 °FSunny.6 mph64%29.99 "Hg10 mi
6:47 am68 °FSunny.6 mph69%29.98 "Hg10 mi
5:35 am70 °FClear.8 mph64%29.95 "Hg10 mi
5:15 am72 °FClear.6 mph65%29.95 "Hg10 mi
4:55 am70 °FClear.No wind69%29.94 "Hg10 mi
4:35 am72 °FClear.5 mph65%29.94 "Hg10 mi
4:15 am72 °FClear.No wind65%29.94 "Hg10 mi
3:55 am73 °FClear.No wind61%29.93 "Hg10 mi
3:35 am73 °FClear.No wind61%29.93 "Hg10 mi
3:15 am73 °FClear.No wind57%29.93 "Hg10 mi
2:55 am73 °FClear.No wind57%29.93 "Hg10 mi
2:35 am73 °FClear.No wind61%29.93 "Hg10 mi
2:15 am75 °FClear.7 mph57%29.92 "Hg10 mi
1:55 am75 °FClear.5 mph57%29.93 "Hg10 mi
1:35 am75 °FClear.6 mph54%29.93 "Hg10 mi
12:55 am73 °FClear.No wind61%29.93 "Hg10 mi
12:35 am77 °FClear.No wind54%29.93 "Hg10 mi
11:55 pm
Wed, Aug 16
77 °FClear.No wind51%29.91 "Hg10 mi
11:35 pm79 °FClear.No wind48%29.91 "Hg10 mi
10:55 pm81 °FClear.No wind45%29.90 "Hg10 mi
10:35 pm81 °FClear.No wind45%29.90 "Hg10 mi
10:15 pm81 °FClear.No wind45%29.89 "Hg10 mi
Weather by CustomWeather, © 2017

See weather overviewHow to use our weather pages